Regional Weather Roundup
Issued by NWS

Home | Current Version | Previous Version | Graphics & Text | Print | Product List | Glossary On
Versions: 1 2 3 4 5 6 7 8 9 10 11 12 13 14 15 16 17 18 19 20 21 22 23 24 25 26 27 28 29 30 31 32 33 34 35 36 37 38 39 40 41 42 43 44 45 46 47 48 49 50
000
ASUS43 KMPX 250010
RWRMN
WEATHER ROUNDUP FOR MINNESOTA
NATIONAL WEATHER SERVICE TWIN CITIES/CHANHASSEN MN
700 PM CDT SAT JUN 24 2017


NOTE: "FAIR" INDICATES FEW OR NO CLOUDS BELOW 12,000 FEET WITH NO
SIGNIFICANT WEATHER AND/OR OBSTRUCTIONS TO VISIBILITY. N/A MEANS
CURRENT SKY AND/OR WEATHER CONDITIONS ARE NOT AVAILABLE.

MNZ060>063-068>070-250100-
   Twin Cities Metro

CITY           SKY/WX    TMP DP  RH WIND       PRES   REMARKS
TWIN CITIES    PTSUNNY   63  43  48 NW15G25   30.03R
6HR MIN TEMP:  54; 6HR MAX TEMP:  66; 6HR PCP: TRACE;

ST PAUL        CLOUDY    62  45  53 NW13G24   30.03R
CRYSTAL        MOSUNNY   63  43  48 NW13G20   30.02S
BLAINE         MOSUNNY   64  45  48 W14G22    30.02R
LAKEVILLE      MOSUNNY   61  46  59 W10G20    30.04R
EDEN PRAIRIE   PTSUNNY   64  44  48 NW12      30.02S
6HR MIN TEMP:  54; 6HR MAX TEMP:  67; 6HR PCP:  0.02;

SOUTH ST PAUL  MOSUNNY   63  43  47 NW15G25   30.02R
LAKE ELMO      FAIR      63  45  51 NW10G17   30.02S
$$
MNZ001>005-007-008-013>017-022>024-027-028-250100-
   Northwest Minnesota

CITY           SKY/WX    TMP DP  RH WIND       PRES   REMARKS
BEMIDJI        CLOUDY    58  48  69 W12       30.02R
HALLOCK        LGT RAIN  52  50  93 N16G22    30.11R
ROSEAU         LGT RAIN  54  48  82 N16G23    30.04R
WARROAD        PTSUNNY   57  54  88 N17       30.03R
THIEF RVR FALL LGT RAIN  54  52  94 NW15G25   30.07R
CROOKSTON      LGT RAIN  52  50  93 NW17G26   30.10R
FOSSTON        CLOUDY    52  48  87 W15G23    30.07R
DETROIT LAKES  CLOUDY    54  48  82 NW21G28   30.09R
MOORHEAD       CLOUDY    57  46  67 N14G23    30.11R
PARK RAPIDS    LGT RAIN  57  51  80 NW23      30.03S
MAHNOMEN       CLOUDY    53  49  86 NW15G24   30.08R
$$
MNZ006-009>011-018-025>026-250100-
   North Central Minnesota

CITY           SKY/WX    TMP DP  RH WIND       PRES   REMARKS
BAUDETTE       CLOUDY    61  51  70 NW10      30.00R
FLAG ISLAND    LGT RAIN  55  54  94 N15       30.02R
INTL FALLS     CLOUDY    60  49  66 N12       29.98R
6HR MIN TEMP:  60; 6HR MAX TEMP:  65;

WASKISH        CLOUDY    61  48  63 N5        29.99S
BIG FORK       CLOUDY    61  46  59 NW5       29.99R
LONGVILLE      SUNNY     61  45  55 W8        30.00S
GRAND RAPIDS   CLOUDY    62  44  51 NW13      30.00S
CRANE LAKE     DRIZZLE   55  52  88 CALM      29.98S
ORR            CLOUDY    57  48  72 N5        29.95R
COOK           PTSUNNY   59  52  77 CALM      29.97R
WALKER         CLOUDY    58  47  68 W8        30.01S
$$
MNZ012-019>021-037-250100-
   Northeast Minnesota

CITY           SKY/WX    TMP DP  RH WIND       PRES   REMARKS
DULUTH         CLOUDY    59  46  62 W10       29.96S
6HR MIN TEMP:  58; 6HR MAX TEMP:  63; 6HR PCP: TRACE;

ELY            CLOUDY    57  48  72 N7        29.96R
HIBBING        CLOUDY    57  50  77 W7        29.97S
EVELETH        CLOUDY    58  47  68 W5        29.98S
DULUTH HARBOR  CLOUDY    63  48  59 W14       29.96S
TWO HARBORS    PTSUNNY   64  52  63 NW5       29.92S
SILVER BAY     PTSUNNY   64  48  55 NW3       29.91S
GRAND MARAIS     N/A     51  51 100 CALM      29.91R
G MARAIS ARPRT CLOUDY    54  48  82 NW5       29.93R
$$
MNZ029>031-032-039>041-046>048-054>057-064-250100-
   West Central Minnesota

CITY           SKY/WX    TMP DP  RH WIND       PRES   REMARKS
FERGUS FALLS   PTSUNNY   59  48  67 NW22      30.07R
WHEATON        CLOUDY    61  45  55 W18       30.13R
MORRIS         PTSUNNY   64  43  45 NW20G26   30.09R
ALEXANDRIA     PTSUNNY   59  47  64 NW16      30.09R
ELBOW LAKE     LGT RAIN  58  48  70 NW17G26   30.10S
WADENA         PTSUNNY   57  48  72 W10G16    30.05S
GLENWOOD       MOSUNNY   61  45  55 NW20G25   30.08S
APPLETON       PTSUNNY   64  39  39 NW21G30   30.10R
BENSON         PTSUNNY   63  43  48 N12       30.10S
ORTONVILLE     CLOUDY    63  43  48 NW16G22   30.12R
MADISON        PTSUNNY   64  43  45 NW16G23   30.12R
WILLMAR        FAIR      63  45  51 NW12      30.09S
$$
MNZ033>034-036-042>043-049>051-058-059-250100-
   Central Minnesota

CITY           SKY/WX    TMP DP  RH WIND       PRES   REMARKS
ST CLOUD       CLOUDY    58  46  64 W14       30.04R
6HR MIN TEMP:  55; 6HR MAX TEMP:  65; 6HR PCP:  0.03;

SAUK CENTRE    MOCLDY    60  45  57 NW16      30.07R
PAYNESVILLE    PTSUNNY   61  42  49 NW14G21   30.07R
AITKIN         CLOUDY    63  46  55 NW9       29.99R
PINE RIVER     SUNNY     61  48  63 W10G17    30.04S
BRAINERD       MOSUNNY   61  46  57 NW6       30.02R
STAPLES        PTSUNNY   57  48  72 W12       30.04S
LONG PRAIRIE   FAIR      59  45  58 W12G21    30.07R
LITTLE FALLS   PTSUNNY   61  43  51 W16G22    30.04S
LITCHFIELD     SUNNY     63  46  55 W15G23    30.07R
BUFFALO        PTSUNNY   60  47  61 W7        30.06R
MAPLE LAKE     SUNNY     60  49  67 NW8       30.06S
HUTCHINSON     CLOUDY    62  46  56 NW13      30.08S
$$
MNZ037-044-045-052-053-250100-
   East Central Minnesota

CITY           SKY/WX    TMP DP  RH WIND       PRES   REMARKS
PRINCETON      SUNNY     64  45  48 W15G21    30.03R
MORA           MOSUNNY   61  43  51 NW14      30.02R
CAMBRIDGE      SUNNY     63  50  63 NW7       29.99F
RUSH CITY      PTSUNNY   61  48  63 W7        30.01R
MOOSE LAKE     PTSUNNY   61  46  59 NW7       29.98R
HINCKLEY       CLOUDY    61  48  63 NW12      30.00R
CLOQUET        PTSUNNY   61  45  55 W10G17    29.98R
MCGREGOR       PTSUNNY   63  46  55 NW6       30.00R
$$
MNZ071>073-080-081-089-090-097-098-250100-
   Southwest Minnesota

CITY           SKY/WX    TMP DP  RH WIND       PRES   REMARKS
MONTEVIDEO     CLOUDY    64  43  45 N15G21    30.11R
GRANITE FALLS  PTSUNNY   65  44  45 NW16G23   30.11R
CANBY          PTSUNNY   64  40  42 W16G23    30.14R
MARSHALL       PTSUNNY   64  40  41 NW17G25   30.11R
REDWOOD FALLS  PTSUNNY   64  40  41 NW17      30.08S
OLIVIA         CLOUDY    63  43  48 NW13G20   30.08R
PIPESTONE      SUNNY     64  37  36 N16G23    30.13S
WINDOM         SUNNY     64  37  36 NW14G23   30.11R
WORTHINGTON    MOSUNNY   64  40  41 NW18G29   30.13R
JACKSON        MOSUNNY   64  36  34 NW16G26   30.11R
TRACY          PTSUNNY   64  42  44 NW14G20   30.12S
SLAYTON        MOSUNNY   63  15  15 NW18G26   30.13S HAZE
$$
MNZ065>067-074>077-082>085-091>093-250100-
   South Central Minnesota

CITY           SKY/WX    TMP DP  RH WIND       PRES   REMARKS
MANKATO        CLOUDY    63  41  44 NW21G26   30.07R
NEW ULM        MOSUNNY   64  43  45 NW17      30.08S
ST JAMES       PTSUNNY   66  37  34 W18G26    30.09S
FAIRMONT       MOSUNNY   65  41  41 NW17      30.10R
GLENCOE        SUNNY     63  47  54 W15G24    30.06S
FARIBAULT      PTSUNNY   63  45  51 NW12G17   30.06S
OWATONNA       MOSUNNY   63  46  55 NW14      30.06R
WASECA         PTSUNNY   63  46  55 NW12      30.08R
ALBERT LEA     MOSUNNY   64  43  45 NW8G20    30.06R
$$
MNZ078>079-086>088-094>096-250100-
   Southeast Minnesota

CITY           SKY/WX    TMP DP  RH WIND       PRES   REMARKS
ROCHESTER      MOSUNNY   62  47  57 NW17      30.05S
6HR MIN TEMP:  50; 6HR MAX TEMP:  67; 6HR PCP:  0.04;

RED WING       SUNNY     64  39  39 W10G22    30.00F
STANTON        MOSUNNY   62  45  54 W15G22    30.03R
DODGE CENTER   SUNNY     61  43  51 NW18G26   30.05R
WINONA         MOSUNNY   55  46  71 W5        30.03S
AUSTIN         MOSUNNY   63  45  51 NW18      30.05R
PRESTON        SUNNY     58  47  65 NW8       30.05S
$$
ABBREVIATIONS USED IN REMARKS
   TC - TEMPERATURES IN CELSIUS
  WCI - WIND CHILL INDEX
   HX - HEAT INDEX
  VSB - VISIBILITY
$$




USA.gov is the U.S. government's official web portal to all federal, state and local government web resources and services.